Delta, CO

8:59 PM MDT on March 22, 2017 (GMT -0600)
Delta

Weather History for KAJZ - February, 2013

Change the Weather History Date:

Thursday, February 28, 2013

  Actual Average (KMTJ) Record (KMTJ)
Temperature  
Mean Temperature 28 °F -  
Max Temperature 42 °F 43 °F 61 °F (2006)
Min Temperature 15 °F 21 °F 6 °F (2007)
Degree Days  
Heating Degree Days 36    
Moisture  
Dew Point 11 °F    
Average Humidity 48    
Maximum Humidity 76    
Minimum Humidity 23    
Precipitation  
Precipitation 0.00 in - - ()
Sea Level Pressure  
Sea Level Pressure 30.40 in    
Wind  
Wind Speed 4 mph (ENE)    
Max Wind Speed 9 mph    
Max Gust Speed -    
Visibility 10 miles    
Events      
Averages and records for this station are not official NWS values.
T = Trace of Precipitation, MM = Missing Value Source: NWS Daily Summary

Daily Weather History Graph

Daily Weather History Graph

Search for Another Location

Airport or City:

Trip Planner

Search our weather history database for the weather conditions in past years. The results will help you decide how hot, cold, wet, or windy it might be!

Date:

Astronomy

Feb. 28, 2013 Rise Set
Actual Time 6:45 AM MST 6:04 PM MST
Civil Twilight 6:18 AM MST 6:31 PM MST
Nautical Twilight 5:48 AM MST 7:01 PM MST
Astronomical Twilight 5:17 AM MST 7:32 PM MST
Moon 9:32 PM MST (2/28) 7:59 AM MST (2/28)
Length of Visible Light 12h 12m
Length of Day
11h 18m
Waning Gibbous, 90% of the Moon is Illuminated
Feb 28
Waning Gibbous
Mar 4
Last Quarter
Mar 11
New
Mar 19
First Quarter
Mar 27
Full

Hourly Weather History & Observations

Time (MST) Temp. Windchill Dew Point Humidity Pressure Visibility Wind Dir Wind Speed Gust Speed Precip Events Conditions
12:15 AM 22.1 °F 15.9 °F 13.1 °F 68% 30.35 in 10.0 mi East 4.6 mph - N/A   Clear
12:35 AM 21.6 °F - 13.1 °F 70% 30.36 in 10.0 mi Calm Calm - N/A   Clear
12:55 AM 21.7 °F 15.5 °F 12.9 °F 69% 30.36 in 10.0 mi NE 4.6 mph - N/A   Clear
1:15 AM 20.3 °F 15.4 °F 12.6 °F 72% 30.38 in 10.0 mi ENE 3.5 mph - N/A   Clear
1:35 AM 20.3 °F 12.5 °F 11.8 °F 70% 30.38 in 10.0 mi NE 5.8 mph - N/A   Clear
1:55 AM 19.9 °F 12.1 °F 11.3 °F 69% 30.39 in 10.0 mi NNE 5.8 mph - N/A   Clear
2:15 AM 20.5 °F 14.0 °F 11.3 °F 68% 30.39 in 10.0 mi NNE 4.6 mph - N/A   Clear
2:35 AM 20.1 °F 13.6 °F 10.9 °F 68% 30.40 in 10.0 mi NNE 4.6 mph - N/A   Clear
2:55 AM 19.9 °F 10.1 °F 10.4 °F 67% 30.40 in 10.0 mi NE 8.1 mph - N/A   Clear
3:35 AM 19.9 °F 12.1 °F 10.4 °F 67% 30.40 in 10.0 mi NE 5.8 mph - N/A   Clear
3:55 AM 19.4 °F 10.4 °F 10.2 °F 68% 30.41 in 10.0 mi ENE 6.9 mph - N/A   Clear
4:15 AM 18.9 °F 13.7 °F 9.5 °F 67% 30.41 in 10.0 mi ENE 3.5 mph - N/A   Clear
4:35 AM 18.1 °F 12.9 °F 9.1 °F 68% 30.41 in 10.0 mi NE 3.5 mph - N/A   Clear
5:15 AM 20.3 °F 15.4 °F 8.8 °F 61% 30.42 in 10.0 mi SSE 3.5 mph - N/A   Clear
5:35 AM 16.2 °F - 9.5 °F 75% 30.42 in 10.0 mi Calm Calm - N/A   Clear
5:55 AM 16.2 °F - 9.9 °F 76% 30.42 in 10.0 mi Calm Calm - N/A   Clear
6:15 AM 16.5 °F 11.0 °F 9.7 °F 74% 30.43 in 10.0 mi NE 3.5 mph - N/A   Clear
6:35 AM 15.6 °F 8.3 °F 8.8 °F 74% 30.43 in 10.0 mi ENE 4.6 mph - N/A   Clear
7:15 AM 17.2 °F 10.2 °F 9.3 °F 71% 30.43 in 10.0 mi ENE 4.6 mph - N/A   Clear
7:35 AM 19.4 °F 11.5 °F 9.3 °F 65% 30.43 in 10.0 mi East 5.8 mph - N/A   Clear
7:55 AM 20.8 °F 13.2 °F 9.1 °F 61% 30.43 in 10.0 mi East 5.8 mph - N/A   Clear
8:15 AM 21.9 °F 12.5 °F 8.8 °F 57% 30.44 in 10.0 mi East 8.1 mph - N/A   Clear
8:55 AM 25.3 °F 18.5 °F 9.5 °F 51% 30.46 in 10.0 mi East 5.8 mph - N/A   Clear
9:15 AM 27.3 °F 20.9 °F 9.1 °F 46% 30.46 in 10.0 mi East 5.8 mph - N/A   Clear
9:35 AM 27.9 °F - 8.8 °F 45% 30.46 in 10.0 mi Calm Calm - N/A   Clear
9:55 AM 28.2 °F - 10.6 °F 48% 30.46 in 10.0 mi Calm Calm - N/A   Clear
10:15 AM 29.1 °F - 10.0 °F 45% 30.46 in 10.0 mi Calm Calm - N/A   Clear
10:35 AM 31.3 °F 27.9 °F 10.8 °F 42% 30.45 in 10.0 mi ESE 3.5 mph - N/A   Clear
10:55 AM 32.0 °F 28.7 °F 9.1 °F 38% 30.44 in 10.0 mi SE 3.5 mph - N/A   Clear
11:15 AM 32.9 °F - 9.3 °F 37% 30.44 in 10.0 mi Calm Calm - N/A   Clear
11:35 AM 33.8 °F - 10.0 °F 37% 30.43 in 10.0 mi Calm Calm - N/A   Clear
11:55 AM 35.6 °F - 9.3 °F 34% 30.43 in 10.0 mi Calm Calm - N/A   Clear
12:15 PM 36.9 °F 34.3 °F 10.2 °F 33% 30.42 in 10.0 mi East 3.5 mph - N/A   Clear
12:35 PM 37.9 °F 34.4 °F 10.4 °F 32% 30.41 in 10.0 mi East 4.6 mph - N/A   Clear
12:55 PM 39.0 °F - 9.5 °F 30% 30.39 in 10.0 mi Calm Calm - N/A   Clear
1:15 PM 39.0 °F - 9.3 °F 29% 30.38 in 10.0 mi Calm Calm - N/A   Clear
1:35 PM 40.1 °F - 8.8 °F 28% 30.38 in 10.0 mi Calm Calm - N/A   Scattered Clouds
2:35 PM 41.4 °F 38.4 °F 9.1 °F 27% 30.35 in 10.0 mi NE 4.6 mph - N/A   Overcast
2:55 PM 42.6 °F 40.9 °F 9.0 °F 25% 30.35 in 10.0 mi ENE 3.5 mph - N/A   Overcast
3:15 PM 42.3 °F - 9.1 °F 26% 30.36 in 10.0 mi Calm Calm - N/A   Mostly Cloudy
3:35 PM 42.1 °F - 8.6 °F 25% 30.36 in 10.0 mi Calm Calm - N/A   Scattered Clouds
3:55 PM 42.1 °F - 8.4 °F 25% 30.35 in 10.0 mi Calm Calm - N/A   Scattered Clouds
4:15 PM 42.4 °F 39.6 °F 8.8 °F 25% 30.35 in 10.0 mi SE 4.6 mph - N/A   Clear
4:35 PM 42.8 °F 40.1 °F 8.8 °F 25% 30.36 in 10.0 mi East 4.6 mph - N/A   Clear
4:55 PM 42.1 °F 40.2 °F 9.0 °F 26% 30.34 in 10.0 mi ESE 3.5 mph - N/A   Clear
5:15 PM 42.8 °F 39.3 °F 9.5 °F 26% 30.34 in 10.0 mi SSE 5.8 mph - N/A   Clear
5:35 PM 42.8 °F - 7.3 °F 23% 30.35 in 10.0 mi Calm Calm - N/A   Clear
5:55 PM 40.3 °F 37.1 °F 10.8 °F 30% 30.35 in 10.0 mi SSE 4.6 mph - N/A   Clear
6:15 PM 38.7 °F 36.3 °F 10.9 °F 32% 30.35 in 10.0 mi South 3.5 mph - N/A   Clear
6:35 PM 36.3 °F 32.5 °F 12.6 °F 38% 30.37 in 10.0 mi NNE 4.6 mph - N/A   Clear
6:55 PM 34.5 °F 27.3 °F 10.8 °F 37% 30.37 in 10.0 mi NNE 9.2 mph - N/A   Clear
7:15 PM 34.7 °F 28.8 °F 11.3 °F 38% 30.38 in 10.0 mi North 6.9 mph - N/A   Clear
7:35 PM 34.5 °F 30.4 °F 11.1 °F 38% 30.38 in 10.0 mi North 4.6 mph - N/A   Clear
7:55 PM 35.1 °F 32.2 °F 10.2 °F 36% 30.38 in 10.0 mi NE 3.5 mph - N/A   Clear
8:15 PM 32.4 °F 29.1 °F 11.3 °F 42% 30.39 in 10.0 mi NNE 3.5 mph - N/A   Clear
8:35 PM 32.2 °F 27.7 °F 12.2 °F 44% 30.39 in 10.0 mi NNE 4.6 mph - N/A   Clear
9:15 PM 32.0 °F - 12.7 °F 45% 30.40 in 10.0 mi Calm Calm - N/A   Clear
9:35 PM 30.9 °F - 14.4 °F 50% 30.42 in 10.0 mi Calm Calm - N/A   Mostly Cloudy
9:55 PM 31.8 °F 28.5 °F 13.6 °F 47% 30.42 in 10.0 mi North 3.5 mph - N/A   Overcast
10:15 PM 32.4 °F - 13.5 °F 46% 30.42 in 10.0 mi Calm Calm - N/A   Mostly Cloudy
10:35 PM 31.1 °F 26.4 °F 14.9 °F 51% 30.43 in 10.0 mi NNE 4.6 mph - N/A   Mostly Cloudy
11:15 PM 30.9 °F 27.5 °F 14.5 °F 51% 30.43 in 10.0 mi ENE 3.5 mph - N/A   Mostly Cloudy
11:35 PM 30.9 °F - 14.9 °F 52% 30.42 in 10.0 mi Calm Calm - N/A   Mostly Cloudy
11:55 PM 29.1 °F 23.0 °F 15.6 °F 57% 30.42 in 10.0 mi ENE 5.8 mph - N/A   Overcast